| time (UTC) | temp F | wind direction | speed MPH | gust MPH | rain 1hr in | rain 24hr in | rain mn in | humidity % | barometer mb |
| 20260902232703 | 79 | 186 | 12.0 | 24.0 | 0.00 | 0.00 | 0.00 | 19 | |
| 20260902231803 | 79 | 184 | 13.0 | 26.0 | 0.00 | 0.00 | 0.00 | 18 | |
| 20260902230903 | 80 | 185 | 13.0 | 30.0 | 0.00 | 0.00 | 0.00 | 18 | |
| 20260902230003 | 80 | 192 | 12.0 | 30.0 | 0.00 | 0.00 | 0.00 | 18 | |
| 20260902225403 | 80 | 198 | 11.0 | 21.0 | 0.00 | 0.00 | 0.00 | 18 | |
| 20260902224713 | 80 | 187 | 12.0 | 25.0 | 0.00 | 0.00 | 0.00 | 20 | |
| 20260902223603 | 80 | 190 | 14.0 | 27.0 | 0.00 | 0.00 | 0.00 | 18 | |
| 20260902222703 | 79 | 192 | 14.0 | 26.0 | 0.00 | 0.00 | 0.00 | 21 | |
| 20260902221803 | 79 | 197 | 13.0 | 26.0 | 0.00 | 0.00 | 0.00 | 22 | |
| 20260902221113 | 79 | 204 | 13.0 | 25.0 | 0.00 | 0.00 | 0.00 | 21 | |
| 20260902220003 | 80 | 185 | 13.0 | 30.0 | 0.00 | 0.00 | 0.00 | 21 | |
| 20260902215403 | 80 | 188 | 11.0 | 22.0 | 0.00 | 0.00 | 0.00 | 21 | |
| 20260902214503 | 80 | 184 | 12.0 | 25.0 | 0.00 | 0.00 | 0.00 | 21 | |
| 20260902213603 | 79 | 182 | 15.0 | 28.0 | 0.00 | 0.00 | 0.00 | 22 | |
| 20260902212703 | 79 | 193 | 14.0 | 29.0 | 0.00 | 0.00 | 0.00 | 21 | |
| 20260902211803 | 80 | 183 | 13.0 | 28.0 | 0.00 | 0.00 | 0.00 | 22 | |
| 20260902210903 | 80 | 193 | 12.0 | 28.0 | 0.00 | 0.00 | 0.00 | 24 | |
| 20260902210003 | 80 | 184 | 13.0 | 29.0 | 0.00 | 0.00 | 0.00 | 21 | |
| 20260902205403 | 80 | 176 | 12.0 | 27.0 | 0.00 | 0.00 | 0.00 | 22 | |
| 20260902204503 | 80 | 179 | 12.0 | 25.0 | 0.00 | 0.00 | 0.00 | 23 | |
| 20260902203814 | 80 | 183 | 11.0 | 26.0 | 0.00 | 0.00 | 0.00 | 23 | |
| 20260902202703 | 79 | 179 | 13.0 | 36.0 | 0.00 | 0.00 | 0.00 | 22 | |
| 20260902202013 | 79 | 180 | 13.0 | 28.0 | 0.00 | 0.00 | 0.00 | 23 | |
| 20260902200903 | 80 | 185 | 12.0 | 24.0 | 0.00 | 0.00 | 0.00 | 24 | |
| 20260902200003 | 79 | 183 | 13.0 | 25.0 | 0.00 | 0.00 | 0.00 | 25 | |
| 20260902195403 | 79 | 177 | 13.0 | 27.0 | 0.00 | 0.00 | 0.00 | 24 | |
| 20260902194503 | 79 | 168 | 13.0 | 25.0 | 0.00 | 0.00 | 0.00 | 24 | |
| 20260902193603 | 79 | 171 | 11.0 | 23.0 | 0.00 | 0.00 | 0.00 | 25 | |
| 20260902192703 | 78 | 166 | 12.0 | 29.0 | 0.00 | 0.00 | 0.00 | 28 | |
| 20260902192012 | 78 | 174 | 13.0 | 26.0 | 0.00 | 0.00 | 0.00 | 26 | |
| 20260902190903 | 77 | 182 | 13.0 | 22.0 | 0.00 | 0.00 | 0.00 | 29 | |
| 20260902190003 | 77 | 171 | 15.0 | 30.0 | 0.00 | 0.00 | 0.00 | 27 | |
| 20260902185403 | 77 | 179 | 14.0 | 30.0 | 0.00 | 0.00 | 0.00 | 26 | |
| 20260902184503 | 77 | 189 | 13.0 | 29.0 | 0.00 | 0.00 | 0.00 | 27 | |
| 20260902183603 | 77 | 179 | 12.0 | 28.0 | 0.00 | 0.00 | 0.00 | 34 | |
| 20260902182703 | 77 | 186 | 11.0 | 27.0 | 0.00 | 0.00 | 0.00 | 33 | |
| 20260902181803 | 76 | 179 | 12.0 | 24.0 | 0.00 | 0.00 | 0.00 | 32 | |
| 20260902180903 | 76 | 176 | 12.0 | 24.0 | 0.00 | 0.00 | 0.00 | 33 | |
| 20260902180005 | 76 | 184 | 11.0 | 23.0 | 0.00 | 0.00 | 0.00 | 33 | |
| 20260902175403 | 76 | 187 | 11.0 | 24.0 | 0.00 | 0.00 | 0.00 | 33 | |
| 20260902174503 | 76 | 177 | 11.0 | 23.0 | 0.00 | 0.00 | 0.00 | 33 | |
| 20260902173603 | 75 | 172 | 10.0 | 21.0 | 0.00 | 0.00 | 0.00 | 35 | |
| 20260902172703 | 75 | 176 | 11.0 | 21.0 | 0.00 | 0.00 | 0.00 | 36 | |
| 20260902171803 | 75 | 160 | 11.0 | 24.0 | 0.00 | 0.00 | 0.00 | 36 | |
| 20260902170903 | 74 | 162 | 12.0 | 32.0 | 0.00 | 0.00 | 0.00 | 37 | |
| 20260902170004 | 74 | 149 | 12.0 | 26.0 | 0.00 | 0.00 | 0.00 | 35 | |
| 20260902165403 | 74 | 146 | 13.0 | 25.0 | 0.00 | 0.00 | 0.00 | 38 | |
| 20260902164503 | 74 | 155 | 10.0 | 20.0 | 0.00 | 0.00 | 0.00 | 37 | |
| 20260902163603 | 73 | 153 | 10.0 | 21.0 | 0.00 | 0.00 | 0.00 | 41 | |
| 20260902162914 | 73 | 153 | 10.0 | 23.0 | 0.00 | 0.00 | 0.00 | 43 | |
| 20260902161803 | 72 | 148 | 11.0 | 21.0 | 0.00 | 0.00 | 0.00 | 42 | |
| 20260902160903 | 72 | 152 | 10.0 | 26.0 | 0.00 | 0.00 | 0.00 | 42 | |
| 20260902160004 | 71 | 141 | 12.0 | 30.0 | 0.00 | 0.00 | 0.00 | 43 | |
| 20260902155613 | 72 | 141 | 11.0 | 30.0 | 0.00 | 0.00 | 0.00 | 42 | |
| 20260902154503 | 71 | 145 | 10.0 | 27.0 | 0.00 | 0.00 | 0.00 | 45 | |
| 20260902153603 | 70 | 141 | 10.0 | 19.0 | 0.00 | 0.00 | 0.00 | 45 | |
| 20260902152703 | 70 | 152 | 11.0 | 23.0 | 0.00 | 0.00 | 0.00 | 46 | |
| 20260902151803 | 70 | 156 | 10.0 | 19.0 | 0.00 | 0.00 | 0.00 | 47 | |
| 20260902150903 | 70 | 151 | 10.0 | 22.0 | 0.00 | 0.00 | 0.00 | 46 | |
| 20260902150003 | 69 | 147 | 9.0 | 20.0 | 0.00 | 0.00 | 0.00 | 47 | |
| 20260902145403 | 69 | 149 | 9.0 | 18.0 | 0.00 | 0.00 | 0.00 | 48 | |
| 20260902144503 | 68 | 158 | 8.0 | 22.0 | 0.00 | 0.00 | 0.00 | 49 | |
| 20260902143603 | 66 | 177 | 6.0 | 27.0 | 0.00 | 0.00 | 0.00 | 52 | |
| 20260902142705 | 65 | 203 | 5.0 | 13.0 | 0.00 | 0.00 | 0.00 | 55 | |
| 20260902142013 | 65 | 225 | 4.0 | 13.0 | 0.00 | 0.00 | 0.00 | 57 | |
| 20260902141114 | 64 | 219 | 3.0 | 9.0 | 0.00 | 0.00 | 0.00 | 59 | |
| 20260902140003 | 64 | 192 | 3.0 | 10.0 | 0.00 | 0.00 | 0.00 | 60 | |
| 20260902135613 | 64 | 222 | 2.0 | 7.0 | 0.00 | 0.00 | 0.00 | 60 | |
| 20260902134503 | 64 | 209 | 4.0 | 15.0 | 0.00 | 0.00 | 0.00 | 61 | |
| 20260902133603 | 63 | 202 | 4.0 | 15.0 | 0.00 | 0.00 | 0.00 | 62 | |
| 20260902132703 | 63 | 203 | 3.0 | 11.0 | 0.00 | 0.00 | 0.00 | 64 | |
| 20260902131803 | 63 | 206 | 4.0 | 10.0 | 0.00 | 0.00 | 0.00 | 65 | |
| 20260902131113 | 63 | 191 | 5.0 | 13.0 | 0.00 | 0.00 | 0.00 | 65 | |
| 20260902130003 | 63 | 184 | 5.0 | 11.0 | 0.00 | 0.00 | 0.00 | 66 | |
| 20260902125403 | 63 | 186 | 5.0 | 17.0 | 0.00 | 0.00 | 0.00 | 65 | |
| 20260902124503 | 63 | 181 | 6.0 | 17.0 | 0.00 | 0.00 | 0.00 | 65 | |
| 20260902123603 | 63 | 181 | 5.0 | 15.0 | 0.00 | 0.00 | 0.00 | 64 | |
| 20260902122703 | 64 | 190 | 7.0 | 17.0 | 0.00 | 0.00 | 0.00 | 62 | |
| 20260902122014 | 64 | 184 | 7.0 | 14.0 | 0.00 | 0.00 | 0.00 | 63 | |
| 20260902120903 | 64 | 183 | 7.0 | 13.0 | 0.00 | 0.00 | 0.00 | 63 | |
| 20260902120003 | 64 | 179 | 7.0 | 13.0 | 0.00 | 0.00 | 0.00 | 64 | |
| 20260902115403 | 63 | 173 | 6.0 | 12.0 | 0.00 | 0.00 | 0.00 | 64 | |
| 20260902114503 | 64 | 178 | 6.0 | 13.0 | 0.00 | 0.00 | 0.00 | 64 | |
| 20260902113603 | 64 | 180 | 7.0 | 13.0 | 0.00 | 0.00 | 0.00 | 64 | |
| 20260902112703 | 64 | 184 | 7.0 | 14.0 | 0.00 | 0.00 | 0.00 | 64 | |
| 20260902111803 | 63 | 182 | 6.0 | 13.0 | 0.00 | 0.00 | 0.00 | 65 | |
| 20260902110903 | 63 | 189 | 6.0 | 11.0 | 0.00 | 0.00 | 0.00 | 64 | |
| 20260902110005 | 63 | 185 | 5.0 | 11.0 | 0.00 | 0.00 | 0.00 | 64 | |
| 20260902105403 | 63 | 184 | 6.0 | 12.0 | 0.00 | 0.00 | 0.00 | 64 | |
| 20260902104503 | 63 | 189 | 6.0 | 13.0 | 0.00 | 0.00 | 0.00 | 63 | |
| 20260902103603 | 64 | 174 | 4.0 | 13.0 | 0.00 | 0.00 | 0.00 | 62 | |
| 20260902102913 | 64 | 173 | 5.0 | 12.0 | 0.00 | 0.00 | 0.00 | 62 | |
| 20260902101803 | 64 | 179 | 7.0 | 14.0 | 0.00 | 0.00 | 0.00 | 61 | |
| 20260902100903 | 65 | 183 | 7.0 | 14.0 | 0.00 | 0.00 | 0.00 | 60 | |
| 20260902100003 | 65 | 181 | 7.0 | 15.0 | 0.00 | 0.00 | 0.00 | 59 | |
| 20260902095613 | 65 | 180 | 8.0 | 16.0 | 0.00 | 0.00 | 0.00 | 58 | |
| 20260902094503 | 65 | 181 | 7.0 | 16.0 | 0.00 | 0.00 | 0.00 | 58 | |
| 20260902093603 | 65 | 183 | 6.0 | 12.0 | 0.00 | 0.00 | 0.00 | 58 | |
| 20260902092703 | 65 | 185 | 6.0 | 14.0 | 0.00 | 0.00 | 0.00 | 57 | |
| 20260902091803 | 65 | 179 | 5.0 | 11.0 | 0.00 | 0.00 | 0.00 | 57 | |
| 20260902090903 | 66 | 181 | 6.0 | 16.0 | 0.00 | 0.00 | 0.00 | 56 | |
| 20260902090213 | 65 | 177 | 6.0 | 16.0 | 0.00 | 0.00 | 0.00 | 56 | |
| 20260902085403 | 65 | 184 | 7.0 | 14.0 | 0.00 | 0.00 | 0.00 | 57 | |
| 20260902084503 | 65 | 187 | 7.0 | 15.0 | 0.00 | 0.00 | 0.00 | 57 | |
| 20260902083603 | 65 | 186 | 7.0 | 15.0 | 0.00 | 0.00 | 0.00 | 56 | |
| 20260902082703 | 65 | 185 | 8.0 | 15.0 | 0.00 | 0.00 | 0.00 | 55 | |
| 20260902082014 | 65 | 181 | 7.0 | 13.0 | 0.00 | 0.00 | 0.00 | 56 | |
| 20260902080903 | 65 | 186 | 6.0 | 14.0 | 0.00 | 0.00 | 0.00 | 55 | |
| 20260902080003 | 65 | 180 | 6.0 | 13.0 | 0.00 | 0.00 | 0.00 | 55 | |
| 20260902075403 | 65 | 174 | 5.0 | 12.0 | 0.00 | 0.00 | 0.00 | 55 | |
| 20260902074503 | 66 | 182 | 6.0 | 14.0 | 0.00 | 0.00 | 0.00 | 53 | |
| 20260902073813 | 66 | 182 | 7.0 | 14.0 | 0.00 | 0.00 | 0.00 | 52 | |
| 20260902072703 | 66 | 187 | 8.0 | 17.0 | 0.00 | 0.00 | 0.00 | 52 | |
| 20260902071803 | 66 | 180 | 6.0 | 15.0 | 0.00 | 0.00 | 0.00 | 51 | |
| 20260902070903 | 66 | 174 | 5.0 | 12.0 | 0.00 | 0.00 | 0.00 | 50 | |
| 20260902070004 | 66 | 170 | 4.0 | 10.0 | 0.00 | 0.00 | 0.00 | 49 | |
| 20260902065614 | 66 | 157 | 3.0 | 10.0 | 0.00 | 0.00 | 0.00 | 49 | |
| 20260902064503 | 67 | 194 | 4.0 | 10.0 | 0.00 | 0.00 | 0.00 | 48 | |
| 20260902063603 | 67 | 171 | 4.0 | 13.0 | 0.00 | 0.01 | 0.00 | 48 | |
| 20260902062703 | 68 | 176 | 3.0 | 7.0 | 0.00 | 0.01 | 0.00 | 47 | |
| 20260902061803 | 68 | 169 | 4.0 | 11.0 | 0.00 | 0.01 | 0.00 | 46 | |
| 20260902060903 | 68 | 158 | 3.0 | 8.0 | 0.00 | 0.01 | 0.00 | 46 | |
| 20260902060008 | 68 | 152 | 4.0 | 7.0 | 0.00 | 0.01 | 0.00 | 46 | |
| 20260902055403 | 67 | 161 | 2.0 | 7.0 | 0.00 | 0.01 | 0.01 | 47 | |
| 20260902054503 | 67 | 140 | 1.0 | 6.0 | 0.00 | 0.01 | 0.01 | 47 | |
| 20260902053603 | 67 | 174 | 1.0 | 4.0 | 0.00 | 0.01 | 0.01 | 47 | |
| 20260902052914 | 67 | 192 | 1.0 | 4.0 | 0.00 | 0.01 | 0.01 | 46 | |
| 20260902051803 | 68 | 165 | 2.0 | 6.0 | 0.00 | 0.01 | 0.01 | 46 | |
| 20260902050903 | 67 | 170 | 1.0 | 4.0 | 0.00 | 0.01 | 0.01 | 46 | |
| 20260902050006 | 67 | 144 | 1.0 | 4.0 | 0.00 | 0.01 | 0.01 | 46 | |
| 20260902045613 | 68 | 175 | 0.0 | 2.0 | 0.00 | 0.01 | 0.01 | 46 | |
| 20260902044503 | 68 | 164 | 1.0 | 7.0 | 0.00 | 0.01 | 0.01 | 44 | |
| 20260902043603 | 69 | 151 | 2.0 | 6.0 | 0.00 | 0.01 | 0.01 | 44 | |
| 20260902042703 | 69 | 179 | 1.0 | 5.0 | 0.00 | 0.01 | 0.01 | 44 | |
| 20260902041803 | 70 | 166 | 2.0 | 7.0 | 0.00 | 0.01 | 0.01 | 43 | |
| 20260902041114 | 71 | 153 | 3.0 | 9.0 | 0.00 | 0.01 | 0.01 | 41 | |
| 20260902040003 | 71 | 151 | 4.0 | 18.0 | 0.00 | 0.01 | 0.01 | 41 | |
| 20260902035403 | 71 | 148 | 4.0 | 11.0 | 0.00 | 0.01 | 0.01 | 40 | |
| 20260902034503 | 71 | 143 | 4.0 | 12.0 | 0.00 | 0.01 | 0.01 | 41 | |
| 20260902033603 | 70 | 149 | 4.0 | 11.0 | 0.00 | 0.01 | 0.01 | 42 | |
| 20260902032703 | 69 | 171 | 2.0 | 12.0 | 0.00 | 0.01 | 0.01 | 43 | |
| 20260902031803 | 68 | 198 | 1.0 | 7.0 | 0.00 | 0.01 | 0.01 | 44 | |
| 20260902030903 | 69 | 203 | 2.0 | 6.0 | 0.00 | 0.01 | 0.01 | 43 | |
| 20260902030003 | 69 | 216 | 1.0 | 4.0 | 0.00 | 0.01 | 0.01 | 42 | |
| 20260902025612 | 69 | 216 | 1.0 | 6.0 | 0.00 | 0.01 | 0.01 | 41 | |
| 20260902024714 | 70 | 197 | 3.0 | 6.0 | 0.00 | 0.01 | 0.01 | 40 | |
| 20260902023603 | 71 | 195 | 3.0 | 9.0 | 0.00 | 0.01 | 0.01 | 39 | |
| 20260902022703 | 72 | 179 | 5.0 | 10.0 | 0.00 | 0.01 | 0.01 | 38 | |
| 20260902021803 | 72 | 186 | 5.0 | 12.0 | 0.00 | 0.02 | 0.01 | 38 | |
| 20260902020903 | 72 | 190 | 5.0 | 13.0 | 0.00 | 0.02 | 0.01 | 37 | |
| 20260902020003 | 73 | 189 | 5.0 | 11.0 | 0.00 | 0.02 | 0.01 | 36 | |
| 20260902015403 | 73 | 193 | 6.0 | 12.0 | 0.00 | 0.03 | 0.01 | 36 | |
| 20260902014503 | 74 | 194 | 8.0 | 17.0 | 0.00 | 0.04 | 0.01 | 35 | |
| 20260902013603 | 75 | 192 | 8.0 | 16.0 | 0.00 | 0.05 | 0.01 | 34 | |
| 20260902012703 | 75 | 182 | 8.0 | 16.0 | 0.00 | 0.05 | 0.01 | 34 | |
| 20260902011803 | 76 | 185 | 10.0 | 23.0 | 0.00 | 0.05 | 0.01 | 32 | |
| 20260902010903 | 76 | 188 | 10.0 | 24.0 | 0.00 | 0.05 | 0.01 | 31 | |
| 20260902010003 | 77 | 180 | 11.0 | 26.0 | 0.00 | 0.05 | 0.01 | 30 | |
| 20260902005403 | 77 | 181 | 11.0 | 24.0 | 0.00 | 0.05 | 0.01 | 31 | |
| 20260902004503 | 78 | 181 | 12.0 | 26.0 | 0.00 | 0.05 | 0.01 | 31 | |
| 20260902003603 | 78 | 185 | 13.0 | 26.0 | 0.00 | 0.05 | 0.01 | 31 | |
| 20260902002703 | 78 | 181 | 12.0 | 22.0 | 0.00 | 0.05 | 0.01 | 33 | |
| 20260902001803 | 78 | 181 | 12.0 | 25.0 | 0.00 | 0.05 | 0.01 | 33 | |
| 20260902000904 | 79 | 177 | 11.0 | 22.0 | 0.00 | 0.05 | 0.01 | 34 | |
| 20260902000003 | 79 | 173 | 11.0 | 20.0 | 0.00 | 0.05 | 0.01 | 33 | |
| 20260901235403 | 79 | 180 | 14.0 | 28.0 | 0.00 | 0.05 | 0.01 | 35 | |
| 20260901234503 | 79 | 183 | 14.0 | 32.0 | 0.00 | 0.05 | 0.01 | 35 | |
| 20260901233603 | 79 | 183 | 15.0 | 30.0 | 0.00 | 0.05 | 0.01 | 35 |